Location: Rooftop Observatory
(39.0308°N, 87.1711°W)
Time: 13:50:54
(UTC-05:00)

Terra - Visible Passes

Search period start: 29 July 2014 00:00
Search period end: 08 August 2014 00:00
Orbit: 701 x 703 km, 98.2° (Epoch: 29 July)

Date Brightness Start Highest point End Pass type
(mag) Time Alt. Az. Time Alt. Az. Time Alt. Az.
29 Jul 4.0 21:19:26 10° ENE 21:20:44 11° ENE 21:22:02 10° NE visible
29 Jul 1.8 22:57:53 79° W 22:57:53 79° W 23:02:33 10° NNW visible
30 Jul 2.9 22:02:20 27° E 22:03:02 28° ENE 22:07:05 10° N visible
30 Jul 3.4 23:41:14 27° W 23:41:14 27° W 23:44:47 10° NW visible
31 Jul 1.7 22:45:42 77° ENE 22:45:42 77° ENE 22:50:22 10° N visible
01 Aug 3.3 21:50:10 21° E 21:50:58 22° ENE 21:54:34 10° NNE visible
01 Aug 3.0 23:29:03 36° W 23:29:03 36° W 23:32:52 10° NNW visible
02 Aug 2.0 22:33:31 57° ENE 22:33:31 57° ENE 22:38:08 10° N visible
03 Aug 4.3 00:12:24 13° W 00:12:24 13° W 00:13:54 10° WNW visible
03 Aug 3.6 21:37:59 16° ENE 21:38:55 17° ENE 21:41:54 10° NNE visible
03 Aug 2.6 23:16:52 47° WNW 23:16:52 47° WNW 23:20:51 10° NNW visible
04 Aug 2.3 22:21:20 43° ENE 22:21:20 43° ENE 22:25:49 10° N visible
05 Aug 4.0 00:00:14 17° WNW 00:00:14 17° WNW 00:02:31 10° NW visible
05 Aug 3.8 21:25:48 12° ENE 21:26:53 13° ENE 21:28:57 10° NE visible
05 Aug 2.2 23:04:42 59° NW 23:04:42 59° NW 23:08:46 10° NNW visible
06 Aug 2.7 22:09:10 32° ENE 22:09:14 32° ENE 22:13:27 10° N visible
06 Aug 3.8 23:48:03 22° WNW 23:48:03 22° WNW 23:50:50 10° NW visible
07 Aug 2.1 22:52:31 66° NNW 22:52:31 66° NNW 22:56:37 10° NNW visible
